| time (UTC) | temp F | wind direction | speed MPH | gust MPH | rain 1hr in | rain 24hr in | rain mn in | humidity % | barometer mb |
| 20260507014530 | 56 | 314 | 2.0 | 7.0 | 0.00 | 0.00 | 0.00 | 73 | 1019.2 |
| 20260507013037 | 57 | 318 | 2.0 | 5.0 | 0.00 | 0.00 | 0.00 | 72 | 1019.1 |
| 20260507011535 | 57 | 269 | 1.0 | 5.0 | 0.00 | 0.00 | 0.00 | 71 | 1019.2 |
| 20260507010038 | 58 | 0 | 1.0 | 7.0 | 0.00 | 0.00 | 0.00 | 71 | 1019.2 |
| 20260507004529 | 58 | 331 | 1.0 | 6.0 | 0.00 | 0.00 | 0.00 | 70 | 1019.1 |
| 20260507003031 | 58 | 257 | 1.0 | 10.0 | 0.00 | 0.00 | 0.00 | 70 | 1019.1 |
| 20260507001537 | 58 | 331 | 1.0 | 8.0 | 0.00 | 0.00 | 0.00 | 70 | 1019.1 |
| 20260507000031 | 58 | 63 | 3.0 | 8.0 | 0.00 | 0.00 | 0.00 | 69 | 1019.3 |
| 20260506234545 | 58 | 304 | 1.0 | 9.0 | 0.00 | 0.00 | 0.00 | 71 | 1019.3 |
| 20260506233031 | 58 | 1 | 1.0 | 9.0 | 0.00 | 0.00 | 0.00 | 71 | 1019.4 |
| 20260506231536 | 58 | 223 | 0.0 | 4.0 | 0.00 | 0.00 | 0.00 | 70 | 1019.5 |
| 20260506230030 | 58 | 277 | 2.0 | 6.0 | 0.00 | 0.00 | 0.00 | 70 | 1019.3 |
| 20260506224542 | 58 | 257 | 1.0 | 5.0 | 0.00 | 0.00 | 0.00 | 70 | 1019.4 |
| 20260506223032 | 58 | 89 | 1.0 | 9.0 | 0.00 | 0.00 | 0.00 | 70 | 1019.4 |
| 20260506221532 | 58 | 210 | 1.0 | 10.0 | 0.00 | 0.00 | 0.00 | 70 | 1019.6 |
| 20260506220043 | 58 | 257 | 2.0 | 8.0 | 0.00 | 0.00 | 0.00 | 70 | 1019.7 |
| 20260506214532 | 58 | 314 | 0.0 | 7.0 | 0.00 | 0.00 | 0.00 | 72 | 1019.7 |
| 20260506213032 | 58 | 317 | 2.0 | 7.0 | 0.00 | 0.00 | 0.00 | 70 | 1019.5 |
| 20260506211532 | 58 | 344 | 2.0 | 9.0 | 0.00 | 0.00 | 0.00 | 69 | 1019.6 |
| 20260506210030 | 59 | 13 | 3.0 | 9.0 | 0.00 | 0.00 | 0.00 | 67 | 1019.5 |
| 20260506204538 | 59 | 309 | 2.0 | 8.0 | 0.00 | 0.00 | 0.00 | 69 | 1019.6 |
| 20260506203034 | 58 | 316 | 2.0 | 7.0 | 0.00 | 0.00 | 0.00 | 70 | 1019.5 |
| 20260506201531 | 58 | 135 | 2.0 | 10.0 | 0.00 | 0.00 | 0.00 | 70 | 1019.4 |
| 20260506200035 | 58 | 0 | 2.0 | 6.0 | 0.00 | 0.00 | 0.00 | 69 | 1019.4 |
| 20260506194535 | 58 | 317 | 1.0 | 5.0 | 0.00 | 0.00 | 0.00 | 72 | 1019.3 |
| 20260506193032 | 56 | 23 | 2.0 | 8.0 | 0.00 | 0.00 | 0.00 | 72 | 1019.4 |
| 20260506191532 | 57 | 1 | 1.0 | 5.0 | 0.00 | 0.00 | 0.00 | 72 | 1019.3 |
| 20260506190031 | 57 | 336 | 1.0 | 5.0 | 0.00 | 0.00 | 0.00 | 71 | 1019.4 |
| 20260506184532 | 57 | 135 | 1.0 | 6.0 | 0.00 | 0.00 | 0.00 | 71 | 1019.3 |
| 20260506183033 | 57 | 178 | 2.0 | 7.0 | 0.00 | 0.00 | 0.00 | 69 | 1019.2 |
| 20260506181531 | 57 | 188 | 1.0 | 9.0 | 0.00 | 0.00 | 0.00 | 69 | 1019.2 |
| 20260506180033 | 57 | 307 | 1.0 | 7.0 | 0.00 | 0.00 | 0.00 | 74 | 1018.9 |
| 20260506174532 | 57 | 350 | 2.0 | 6.0 | 0.00 | 0.00 | 0.00 | 74 | 1019.0 |
| 20260506173038 | 56 | 193 | 1.0 | 4.0 | 0.00 | 0.00 | 0.00 | 74 | 1018.7 |
| 20260506171528 | 56 | 213 | 1.0 | 5.0 | 0.00 | 0.00 | 0.00 | 76 | 1018.9 |
| 20260506170032 | 55 | 257 | 2.0 | 9.0 | 0.00 | 0.00 | 0.00 | 76 | 1018.9 |
| 20260506164531 | 55 | 117 | 1.0 | 4.0 | 0.00 | 0.00 | 0.00 | 77 | 1018.9 |
| 20260506163030 | 55 | 269 | 1.0 | 3.0 | 0.00 | 0.00 | 0.00 | 79 | 1018.8 |
| 20260506161532 | 55 | 152 | 1.0 | 3.0 | 0.00 | 0.00 | 0.00 | 79 | 1018.7 |
| 20260506160038 | 54 | 0 | 0.0 | 3.0 | 0.00 | 0.00 | 0.00 | 80 | 1018.6 |
| 20260506154532 | 54 | 307 | 1.0 | 4.0 | 0.00 | 0.00 | 0.00 | 82 | 1018.4 |
| 20260506153032 | 53 | 1 | 1.0 | 6.0 | 0.00 | 0.00 | 0.00 | 82 | 1018.6 |
| 20260506151531 | 53 | 46 | 1.0 | 4.0 | 0.00 | 0.00 | 0.00 | 84 | 1018.4 |
| 20260506150030 | 52 | 0 | 1.0 | 5.0 | 0.00 | 0.00 | 0.00 | 84 | 1018.8 |
| 20260506144529 | 52 | 322 | 0.0 | 3.0 | 0.00 | 0.00 | 0.00 | 85 | 1018.6 |
| 20260506143035 | 52 | 269 | 1.0 | 4.0 | 0.00 | 0.00 | 0.00 | 85 | 1018.4 |
| 20260506141532 | 52 | 1 | 0.0 | 3.0 | 0.00 | 0.00 | 0.00 | 85 | 1018.0 |
| 20260506140035 | 52 | 329 | 1.0 | 2.0 | 0.00 | 0.00 | 0.00 | 85 | 1018.2 |
| 20260506134530 | 52 | 178 | 1.0 | 3.0 | 0.00 | 0.00 | 0.00 | 86 | 1018.2 |
| 20260506133034 | 52 | 161 | 0.0 | 3.0 | 0.00 | 0.00 | 0.00 | 85 | 1018.0 |
| 20260506131544 | 52 | 0 | 0.0 | 3.0 | 0.00 | 0.00 | 0.00 | 86 | 1018.0 |
| 20260506130038 | 52 | 0 | 0.0 | 7.0 | 0.00 | 0.00 | 0.00 | 86 | 1018.0 |
| 20260506124532 | 52 | 269 | 0.0 | 4.0 | 0.00 | 0.00 | 0.00 | 86 | 1017.8 |
| 20260506123032 | 52 | 0 | 1.0 | 4.0 | 0.00 | 0.00 | 0.00 | 86 | 1017.7 |
| 20260506121531 | 52 | 0 | 0.0 | 6.0 | 0.00 | 0.00 | 0.00 | 86 | 1017.6 |
| 20260506120030 | 52 | 0 | 0.0 | 4.0 | 0.00 | 0.00 | 0.00 | 86 | 1017.7 |
| 20260506114530 | 52 | 277 | 1.0 | 3.0 | 0.00 | 0.00 | 0.00 | 86 | 1017.5 |
| 20260506113032 | 52 | 0 | 1.0 | 2.0 | 0.00 | 0.00 | 0.00 | 86 | 1017.3 |
| 20260506111529 | 52 | 310 | 0.0 | 4.0 | 0.00 | 0.00 | 0.00 | 86 | 1017.4 |
| 20260506110028 | 52 | 347 | 1.0 | 4.0 | 0.00 | 0.00 | 0.00 | 86 | 1017.3 |
| 20260506104528 | 52 | 0 | 0.0 | 4.0 | 0.00 | 0.00 | 0.00 | 86 | 1017.1 |
| 20260506103038 | 52 | 309 | 0.0 | 5.0 | 0.00 | 0.00 | 0.00 | 86 | 1017.0 |
| 20260506101533 | 52 | 349 | 0.0 | 3.0 | 0.00 | 0.00 | 0.00 | 86 | 1016.9 |
| 20260506100036 | 52 | 0 | 0.0 | 2.0 | 0.00 | 0.00 | 0.00 | 86 | 1016.7 |
| 20260506094538 | 52 | 0 | 0.0 | 3.0 | 0.00 | 0.00 | 0.00 | 86 | 1016.5 |
| 20260506093034 | 52 | 324 | 0.0 | 2.0 | 0.00 | 0.00 | 0.00 | 86 | 1016.5 |
| 20260506091531 | 52 | 0 | 0.0 | 2.0 | 0.00 | 0.00 | 0.00 | 86 | 1016.5 |
| 20260506090032 | 52 | 269 | 1.0 | 4.0 | 0.00 | 0.00 | 0.00 | 87 | 1016.6 |
| 20260506084532 | 52 | 295 | 0.0 | 2.0 | 0.00 | 0.00 | 0.00 | 88 | 1016.5 |
| 20260506083031 | 52 | 0 | 0.0 | 1.0 | 0.00 | 0.00 | 0.00 | 89 | 1016.1 |
| 20260506081533 | 52 | 0 | 0.0 | 2.0 | 0.00 | 0.00 | 0.00 | 89 | 1016.1 |
| 20260506073030 | 50 | 0 | 0.0 | 1.0 | 0.00 | 0.00 | 0.00 | 89 | 1015.7 |
| 20260506071535 | 50 | 0 | 0.0 | 1.0 | 0.00 | 0.00 | 0.00 | 88 | 1015.6 |
| 20260506061530 | 51 | 0 | 0.0 | 1.0 | 0.00 | 0.00 | 0.00 | 86 | 1015.0 |
| 20260506044530 | 54 | 0 | 0.0 | 1.0 | 0.00 | 0.00 | 0.00 | 82 | 1014.7 |
| 20260506043027 | 55 | 0 | 0.0 | 1.0 | 0.00 | 0.00 | 0.00 | 81 | 1014.7 |
| 20260506041532 | 55 | 0 | 0.0 | 1.0 | 0.00 | 0.00 | 0.00 | 80 | 1014.5 |
| 20260506040033 | 56 | 0 | 0.0 | 1.0 | 0.00 | 0.00 | 0.00 | 78 | 1014.4 |
| 20260506034530 | 57 | 0 | 0.0 | 1.0 | 0.00 | 0.00 | 0.00 | 77 | 1014.2 |
| 20260506033028 | 58 | 0 | 0.0 | 1.0 | 0.00 | 0.00 | 0.00 | 75 | 1014.0 |
| 20260506031528 | 59 | 0 | 0.0 | 1.0 | 0.00 | 0.00 | 0.00 | 73 | 1014.0 |
| 20260506030035 | 60 | 0 | 0.0 | 2.0 | 0.00 | 0.00 | 0.00 | 72 | 1014.0 |
| 20260506024544 | 61 | 0 | 0.0 | 2.0 | 0.00 | 0.00 | 0.00 | 70 | 1013.9 |
| 20260506023035 | 62 | 0 | 1.0 | 6.0 | 0.00 | 0.00 | 0.00 | 68 | 1014.0 |
| 20260506021534 | 65 | 0 | 0.0 | 2.0 | 0.00 | 0.00 | 0.00 | 63 | 1013.8 |
| 20260506020030 | 66 | 135 | 0.0 | 3.0 | 0.00 | 0.00 | 0.00 | 62 | 1013.7 |